{"data":{"norad_id":61536,"intl_designator":"2024-184E","name":"STARLINK-11295 [DTC]","alt_names":[],"object_type":"PAYLOAD","status":"ACTIVE","operator":null,"country":"US","launch_date":"2024-10-15","launch_site_code":"AFWTR","launch_vehicle":null,"mission":null,"orbit_class":"UNKNOWN","rcs_meters":null,"size_class":null,"mass_kg":null,"dimensions":null,"purposes":["comms"],"wikipedia_slug":null,"has_3d_model":false,"image_url":null,"decayed_at":null,"tle_current":{"epoch":"2026-09-21T12:08:28.042368Z","epoch_age_seconds":105251,"freshness":"FRESH","line1":"1 61536U 24184E   26264.50588012  .00000217  00000+0  66479-5 0  9995","line2":"2 61536  53.1601 350.8776 0001171  82.9652 277.1500 15.69708930111178","mean_motion":15.6970893,"eccentricity":0.0001171,"inclination_deg":53.1601,"raan_deg":350.8776,"arg_perigee_deg":82.9652,"mean_anomaly_deg":277.15,"bstar":6.6479e-6,"rev_number":11117,"period_min":91.736752749441,"perigee_km":358.94080814822,"apogee_km":360.51881655567,"semimajor_km":6737.8668123519,"source":"CELESTRAK","updated_at":"2026-09-22T09:00:49.364542Z"}}}